Regional Weather Roundup
Issued by NWS Charleston, SC

Current Version | Previous Version | Text Only | Print | Product List | Glossary Off
Versions: 1 2 3 4 5 6 7 8 9 10 11 12 13 14 15 16 17 18 19 20 21 22 23 24 25 26 27 28 29 30 31 32 33 34 35 36 37 38 39 40 41 42 43 44 45 46 47 48 49 50

000
ASUS42 KCHS 301928
RWRCHS

REGIONAL WEATHER ROUNDUP
NATIONAL WEATHER SERVICE CHARLESTON SC
300 PM EDT SAT JUL 30 2016

NOTE: "FAIR" INDICATES FEW OR NO CLOUDS BELOW 12,000 FEET WITH NO
SIGNIFICANT WEATHER AND/OR OBSTRUCTIONS TO VISIBILITY.

NOT ALL STATIONS ARE QUALITY CONTROLLED. USE DATA WITH CAUTION...
ESPECIALLY DEWPOINT OBSERVATIONS.

SCZ027-030-031-034>040-042>050-302000-
...SOUTHEAST SOUTH CAROLINA...

CITY           SKY/WX    TMP DP  RH WIND       PRES   REMARKS
N CHARLESTON   MOSUNNY   98  68  37 SW13G21   29.97F HX 103
WATERFRONT PRK   N/A     93  75  55 S10       29.98F HX 104
MOUNT PLEASANT FAIR      97  75  49 S14       29.97F HX 109
JOHNS ISLAND   FAIR      95  77  55 S14       29.98F HX 109
PINOPOLIS        N/A     95  72  46 W9        29.89F HX 103
MONCKS CORNER  FAIR      95  63  34 SW14      29.96F HX  96
SUMMERVILLE    FAIR      99  68  36 SW8       29.97F HX 104
BEAUFORT MCAS  MOSUNNY  101  69  35 SW6G20    29.98F HX 107
BEAUFORT ARPT  FAIR      95  72  46 S12G17    29.98F HX 103
HILTON HEAD IS MOSUNNY   99  77  49 S12       30.01S HX 114
WALTERBORO     CLEAR     97  64  34 W8        29.98F HX  99
ALLENDALE      FAIR      97  68  38 S7        29.96F HX 101

...SOUTHERN MIDLANDS AND PEE DEE...

CITY           SKY/WX    TMP DP  RH WIND       PRES   REMARKS
GEORGETOWN     MOCLDY    86  70  58 S10G17    29.99S HX  90
KINGSTREE      FAIR      97  68  38 W8        29.95F HX 101
ORANGEBURG     MOSUNNY   98  70  40 S8        29.97F HX 105
BARNWELL       NOT AVBL
AIKEN          FAIR      86  72  62 W5        30.03S HX  92
MANNING        FAIR      97  68  38 SW12      29.95F HX 101
COLUMBIA       PTSUNNY   99  64  31 SW15      29.94F HX 101
SUMTER         SUNNY     97  69  40 SW14      29.93F HAZE    HX 102
FLORENCE       MOSUNNY   96  72  45 SW15G21   29.96F HX 104
MYRTLE BEACH   PTSUNNY   93  72  49 S12       29.98F HX 100
N MYRTLE BEACH MOSUNNY   93  79  63 S13       29.96F HX 110

$$

GAZ063-065-086>088-099>101-113>116-118-119-134>141-150-302000-
...SOUTHEAST GEORGIA...

CITY           SKY/WX    TMP DP  RH WIND       PRES   REMARKS
SAVANNAH ARPT  MOSUNNY   98  68  37 SW10G16   29.99F HX 103
HUNTER AAF     MOSUNNY   96  75  51 VRB7      29.97F HX 107
FORT STEWART   PTSUNNY   91  73  55 CALM      29.96F HX 100
STATESBORO     SUNNY     97  73  45 W6        29.98F HX 106
SYLVANIA       NOT AVBL
CLAXTON        FAIR      96  71  43 CALM      29.97F HX 103

...CSRA...CENTRAL AND FAR SOUTHEAST GEORGIA...

CITY           SKY/WX    TMP DP  RH WIND       PRES   REMARKS
THOMSON        NOT AVBL
AUGUSTA-BUSH   CLOUDY    83  72  69 CALM      29.98F
AUGUSTA-DANIEL HVY RAIN  80  73  79 S7        30.01F
SWAINSBORO     FAIR      95  66  38 W12G17    29.99F HX  98
VIDALIA        MOSUNNY   99  64  32 W3        29.98F HX 101
EASTMAN        FAIR      92  60  33 N7        30.03S HX  92
HAZLEHURST     FAIR      98  69  38 CALM      29.98F HX 105
ALMA           MOSUNNY   97  68  38 CALM      30.00F HX 102
WAYCROSS       MOSUNNY  101  72  38 NW8       30.00F HX 110
JESUP          FAIR      99  73  44 W6        29.99F HX 109
BAXLEY         FAIR      99  72  41 NW3       29.99F HX 107
BRUNSWICK      MOSUNNY   97  77  52 S13       30.00F HX 112
SAINT SIMONS   SUNNY     93  74  53 SE13      30.01F HX 103

$$

SCZ027-028-034-036>038-045-046-048>050-GAZ119-141-302000-
...LAKE AND SUPPLEMENTAL COASTAL OBSERVATIONS...

STATION/POSITION TIME  TEMP    WIND        PRES    WAVE   SWELL
                       AIR SEA DIR/SP/G            HT/PER HT/PER/DIR
                 (UTC) (F)     (DEG/KT/KT) (MB)    (FT/S) (FT/S/D)
WINYAH BAY       1800   95     240/  7     1015.0S
LAKE MURRAY      1800   92     200/  7/  9 1014.2F
ACE BASIN NERRS  1800   95     160/  1     1016.0F
FORT PULASKI     1900   92 88  150/  7/ 13 1016.1F
SAPELO ISLAND    1900   96     150/ 11     1016.0F

$$

ANZ835-935-AMZ111-154-330-350-352-354-370-450-454-472-302000-
...C-MAN AND BUOY OBSERVATIONS...

STATION/POSITION TIME  TEMP    WIND        PRES    WAVE   SWELL
                       AIR SEA DIR/SP/G            HT/PER HT/PER/DIR
                 (UTC) (F)     (DEG/KT/KT) (MB)    (FT/S) (FT/S/D)
BUOY 41004       1850   85 86  220/ 10/ 12 1015.7F   3/ 6   2/230/ 6
BUOY 41008       1850   86 88  170/ 12/ 14 1016.5F   1/ 8   2/120/ 8
FOLLY BEACH CMAN 1900   89     180/ 13/ 15 1015.9F
CAPERS NEARSHORE 1908   88 87  200/ 12/ 16 1015.1F
FRIPP NEARSHORE  1908   87 89  190/ 14/ 17 1015.3F


STATION/POSITION TIME  TEMP    WIND        PRES    WAVE   SWELL
                       AIR SEA DIR/SP/G            HT/PER HT/PER/DIR
                 (UTC) (F)     (DEG/KT/KT) (MB)    (FT/S) (FT/S/D)
5E ST. MARYS GA  1901      87                N/A     1/ 8
FRYING PAN BUOY  1900          210/ 10/ 12 1015.0F
BUOY 41025       1850   85 85  180/ 12/ 14 1015.4F   2/ 6   2/210/ 6
CAPE LOOKOUT NC  1900   88     190/ 11/ 15 1014.5F
BUOY 41002       1850   85 85  230/  8/ 10 1018.4F   3/ 6   2/250/ 6
BUOY 41010       1820   86 89  310/  2/  4 1018.3F
ST AUGUSTINE FL  1900   84 87  100/  8/  9 1018.2F


$$




USA.gov is the U.S. government's official web portal to all federal, state and local government web resources and services.